This is the latest recevied weather packets stored in our database for station/object 9W2KHE-10. If no packets are shown the sender has not sent any weather packets the latest 10 day(s).
| Time | Temp. | Humidity | Pressure | Rain* | Wind** | Luminosity | Snow |
|---|---|---|---|---|---|---|---|
| 1777792205 | 32.22° C | 55% | 1008.7 hPa | - | - | - | - |
| 1777791305 | 32.22° C | 57% | 1008.9 hPa | - | - | - | - |
| 1777790405 | 31.67° C | 58% | 1009.2 hPa | - | - | - | - |
| 1777789505 | 31.67° C | 61% | 1009.7 hPa | - | - | - | - |
| 1777788605 | 31.11° C | 59% | 1010 hPa | - | - | - | - |
| 1777787705 | 31.11° C | 60% | 1010.4 hPa | - | - | - | - |
| 1777786805 | 31.11° C | 60% | 1010.6 hPa | - | - | - | - |
| 1777785904 | 31.11° C | 62% | 1010.9 hPa | - | - | - | - |
| 1777785004 | 31.11° C | 62% | 1011.3 hPa | - | - | - | - |
| 1777784104 | 30.56° C | 62% | 1011.5 hPa | - | - | - | - |
| 1777783204 | 30.56° C | 61% | 1011.6 hPa | - | - | - | - |
| 1777782304 | 30.56° C | 61% | 1011.8 hPa | - | - | - | - |
| 1777781403 | 30° C | 63% | 1012 hPa | - | - | - | - |
| 1777780503 | 30° C | 63% | 1012.2 hPa | - | - | - | - |
| 1777779603 | 30° C | 64% | 1012.3 hPa | - | - | - | - |
| 1777778703 | 29.44° C | 67% | 1012.5 hPa | - | - | - | - |
| 1777777802 | 29.44° C | 68% | 1012.7 hPa | - | - | - | - |
| 1777776901 | 28.89° C | 68% | 1012.6 hPa | - | - | - | - |
| 1777776026 | 28.89° C | 69% | 1012.5 hPa | - | - | - | - |
| 1777775126 | 28.89° C | 70% | 1012.2 hPa | - | - | - | - |
| 1777774226 | 28.33° C | 70% | 1012.1 hPa | - | - | - | - |
| 1777773326 | 28.33° C | 70% | 1012.1 hPa | - | - | - | - |
| 1777772426 | 28.33° C | 70% | 1012.1 hPa | - | - | - | - |
| 1777771525 | 28.33° C | 70% | 1012.1 hPa | - | - | - | - |
| 1777770625 | 28.33° C | 69% | 1011.8 hPa | - | - | - | - |
* Rain since midnight (hover to see other rain measurements)
** Current wind speed in m/s (hover to see current wind gust speed)